Location: Harwich
(41.7160°N, 69.9939°W)
Time: 11:07:26
(UTC+01:00)

Vanguard 2 - All Passes

Search period start: 31 January 2023 00:00
Search period end: 10 February 2023 00:00
Orbit: 553 x 2930 km, 32.9° (Epoch: 30 January)

Date Brightness Start Highest point End Pass type
(mag) Time Alt. Az. Time Alt. Az. Time Alt. Az.
31 Jan - 00:55:56 10° SE 00:58:44 11° SE 01:01:41 10° ESE visible
31 Jan - 02:54:46 10° SSW 03:07:08 36° SE 03:22:08 10° E visible
31 Jan - 05:02:14 10° WSW 05:17:57 58° SSE 05:34:43 10° E visible
31 Jan - 07:12:45 10° W 07:30:05 62° S 07:45:10 10° ESE visible
31 Jan - 09:25:17 10° W 09:41:12 44° SSW 09:53:15 10° SE visible
31 Jan - 11:41:14 10° W 11:49:47 18° SW 11:56:46 10° SSW visible
01 Feb - 01:07:42 10° SSE 01:14:47 16° SE 01:23:04 10° E visible
01 Feb - 03:10:41 10° SW 03:23:34 42° SSE 03:39:29 10° E visible
01 Feb - 05:18:53 10° WSW 05:34:48 61° S 05:51:40 10° E visible
01 Feb - 07:29:43 10° W 07:46:57 60° SSW 08:01:51 10° ESE visible
01 Feb - 09:42:34 10° W 09:57:40 38° SSW 10:09:18 10° SSE visible
01 Feb - 12:01:16 10° WSW 12:05:50 12° SW 12:09:55 10° SSW visible
02 Feb - 01:22:04 10° S 01:30:53 22° SE 01:41:51 10° E visible
02 Feb - 03:26:51 10° SW 03:40:07 48° SSE 03:56:40 10° E visible
02 Feb - 05:35:38 10° WSW 05:51:42 63° S 06:08:35 10° ESE visible
02 Feb - 07:46:43 10° W 08:03:44 56° SSW 08:18:25 10° SE visible
02 Feb - 10:00:03 10° W 10:14:00 31° SW 10:25:03 10° SSE visible
03 Feb - 01:37:14 10° SSW 01:47:03 28° SE 01:59:51 10° E visible
03 Feb - 03:43:13 10° SW 03:56:47 54° SSE 04:13:46 10° E visible
03 Feb - 05:52:27 10° WSW 06:08:37 63° S 06:25:27 10° ESE visible
03 Feb - 08:03:47 10° W 08:20:27 50° SSW 08:34:50 10° SE visible
03 Feb - 10:17:52 10° W 10:30:15 25° SW 10:40:23 10° S visible
04 Feb - 01:52:53 10° SSW 02:03:19 35° SE 02:17:26 10° E visible
04 Feb - 03:59:44 10° WSW 04:13:31 58° SSE 04:30:48 10° E visible
04 Feb - 06:09:19 10° W 06:25:31 62° S 06:42:13 10° ESE visible
04 Feb - 08:20:55 10° W 08:37:03 44° SSW 08:51:03 10° SE visible
04 Feb - 10:36:16 10° W 10:46:24 19° SW 10:55:04 10° S visible
05 Feb - 00:06:31 10° SSE 00:11:41 14° SE 00:17:48 10° ESE visible
05 Feb - 02:08:51 10° SW 02:19:42 41° SSE 02:34:46 10° E visible
05 Feb - 04:16:22 10° WSW 04:30:20 61° S 04:47:48 10° E visible
05 Feb - 06:26:14 10° W 06:42:22 59° SSW 06:58:54 10° ESE visible
05 Feb - 08:38:10 10° W 08:53:33 38° SSW 09:07:01 10° SSE visible
05 Feb - 10:55:59 10° WSW 11:02:29 13° SW 11:08:23 10° SSW visible
06 Feb - 00:20:46 10° S 00:27:44 20° SE 00:36:44 10° E visible
06 Feb - 02:25:03 10° SW 02:36:12 47° SSE 02:51:58 10° E visible
06 Feb - 04:33:04 10° WSW 04:47:12 62° S 05:04:44 10° ESE visible
06 Feb - 06:43:11 10° W 06:59:10 55° SSW 07:15:26 10° SE visible
06 Feb - 08:55:39 10° W 09:09:57 32° SW 09:22:39 10° SSE visible
07 Feb - 00:35:59 10° S 00:43:52 26° SE 00:54:44 10° E visible
07 Feb - 02:41:26 10° SW 02:52:49 52° SSE 03:09:04 10° E visible
07 Feb - 04:49:51 10° WSW 05:04:05 62° S 05:21:34 10° ESE visible
07 Feb - 07:00:12 10° W 07:15:53 49° SSW 07:31:48 10° SE visible
07 Feb - 09:13:27 10° W 09:26:16 25° SW 09:37:50 10° S visible
08 Feb - 00:51:40 10° SSW 01:00:06 32° SE 01:12:19 10° E visible
08 Feb - 02:57:57 10° WSW 03:09:31 57° SSE 03:26:07 10° E visible
08 Feb - 05:06:41 10° W 05:20:57 60° S 05:38:21 10° ESE visible
08 Feb - 07:17:18 10° W 07:32:32 43° SSW 07:47:55 10° SE visible
08 Feb - 09:31:53 10° W 09:42:30 19° SW 09:52:19 10° S visible
08 Feb - 23:06:28 10° SE 23:09:06 11° SE 23:12:04 10° ESE daylight
09 Feb - 01:07:39 10° SSW 01:16:27 38° SSE 01:29:38 10° E visible
09 Feb - 03:14:34 10° WSW 03:26:17 59° S 03:43:06 10° E visible
09 Feb - 05:23:33 10° W 05:37:48 57° SSW 05:54:59 10° ESE visible
09 Feb - 07:34:32 10° W 07:49:05 37° SSW 08:03:47 10° SSE visible
09 Feb - 09:51:40 10° WSW 09:58:41 14° SW 10:05:24 10° SSW visible
09 Feb - 23:20:07 10° S 23:25:09 17° SE 23:31:34 10° E visible
